Location: Poughquag
(41.6090°N, 73.6820°W)
Time: 01:50:25
(UTC-04:00)

Explorer 11/Cluster Stage 4 - Pass Details

Date: 05 June 2020
Orbit: 467 x 1259 km, 28.8° (Epoch: 06 July)

Event Time Altitude Azimuth Distance (km) Brightness Sun altitude
Rises 04:15:52 0° 212° (SSW) 2,898 - -10.5°
Exits shadow 04:18:29 - 193° (SSW) 2,281 8.5 -10.2°
Reaches altitude 10° 04:19:17 10° 184° (S) 2,158 8.4 -10.0°
Maximum altitude 04:21:37 13° 157° (SSE) 2,065 8.5 -9.7°
Drops below altitude 10° 04:24:09 10° 130° (SE) 2,404 9.2 -9.4°
Sets 04:28:25 0° 105° (ESE) 3,556 10.5 -8.8°
